Grand Rapids, MI

4:07 AM EST on November 19, 2017 (GMT -0500)
Gerald R. Ford International

Weather History for KGRR - November, 2010

Change the Weather History Date:

Monday, November 22, 2010

  Actual Average Record
Temperature  
Mean Temperature 59 °F 38 °F  
Max Temperature 63 °F 44 °F 66 °F (1913)
Min Temperature 55 °F 31 °F 13 °F (1929)
Degree Days  
Heating Degree Days 6 27  
Month to date heating degree days 456 511  
Since 1 July heating degree days 921 1103  
Cooling Degree Days 0 0  
Month to date cooling degree days 0 0  
Year to date cooling degree days 964 699  
Growing Degree Days 10 (Base 50)    
Moisture  
Dew Point 56 °F    
Average Humidity 87    
Maximum Humidity 93    
Minimum Humidity 80    
Precipitation  
Precipitation 1.38 in 0.12 in 1.38 in (2010)
Month to date precipitation 1.69 2.64  
Year to date precipitation 32.97 34.90  
Snow  
Snow 0.00 in 0.30 in 7.00 in (1898)
Month to date snowfall 0.1 3.9  
Since 1 July snowfall 0.1 4.4  
Since 1 September snowfall 0.1 4.4  
Snow Depth 0.00 in    
Sea Level Pressure  
Sea Level Pressure 29.79 in    
Wind  
Wind Speed 13 mph (SSW)    
Max Wind Speed 25 mph    
Max Gust Speed 32 mph    
Visibility 6 miles    
Events Rain , Thunderstorm    
T = Trace of Precipitation, MM = Missing Value Source: NWS Daily Summary

Daily Weather History Graph

Daily Weather History Graph

Search for Another Location

Airport or City:

Trip Planner

Search our weather history database for the weather conditions in past years. The results will help you decide how hot, cold, wet, or windy it might be!

Date:

Astronomy

Nov. 22, 2010 Rise Set
Actual Time 7:42 AM EST 5:13 PM EST
Civil Twilight 7:11 AM EST 5:44 PM EST
Nautical Twilight 6:37 AM EST 6:19 PM EST
Astronomical Twilight 6:03 AM EST 6:52 PM EST
Moon 5:51 PM EST (11/22) 8:46 AM EST (11/22)
Length of Visible Light 10h 32m
Length of Day
9h 30m
Full, 99% of the Moon is Illuminated
Nov 22
Full
Nov 28
Last Quarter
Dec 5
New
Dec 13
First Quarter
Dec 21
Full

Hourly Weather History & Observations

Time (EST) Temp. Dew Point Humidity Pressure Visibility Wind Dir Wind Speed Gust Speed Precip Events Conditions
12:41 AM 59.0 °F 53.6 °F 82% 29.88 in 10.0 mi SSW 11.5 mph - N/A   Overcast
12:53 AM 59.0 °F 53.1 °F 81% 29.88 in 10.0 mi SSW 12.7 mph - N/A   Overcast
1:53 AM 60.1 °F 55.0 °F 83% 29.87 in 8.0 mi SSW 12.7 mph - 0.01 in   Overcast
2:50 AM 60.8 °F 55.4 °F 82% 29.86 in 8.0 mi SSW 11.5 mph - 0.01 in Rain , Thunderstorm Light Thunderstorms and Rain
2:53 AM 60.8 °F 55.4 °F 82% 29.85 in 8.0 mi SW 11.5 mph 19.6 mph N/A Thunderstorm Thunderstorm
3:05 AM 60.8 °F 55.4 °F 82% 29.86 in 8.0 mi SSW 11.5 mph 23.0 mph N/A   Overcast
3:53 AM 61.0 °F 55.9 °F 83% 29.86 in 8.0 mi SSW 13.8 mph - 0.00 in   Overcast
4:53 AM 60.1 °F 55.9 °F 86% 29.86 in 8.0 mi SW 12.7 mph - 0.00 in   Overcast
5:03 AM 60.8 °F 55.4 °F 82% 29.86 in 8.0 mi SW 13.8 mph - N/A   Overcast
5:38 AM 60.8 °F 57.2 °F 88% 29.87 in 7.0 mi SW 10.4 mph - 0.01 in   Overcast
5:53 AM 60.1 °F 57.0 °F 90% 29.87 in 7.0 mi SSW 10.4 mph - 0.01 in   Overcast
6:06 AM 60.8 °F 57.2 °F 88% 29.86 in 7.0 mi SW 12.7 mph - N/A   Overcast
6:53 AM 61.0 °F 57.0 °F 87% 29.85 in 6.0 mi SW 15.0 mph - 0.04 in   Overcast
7:53 AM 60.1 °F 55.9 °F 86% 29.86 in 6.0 mi SW 12.7 mph - 0.01 in   Mostly Cloudy
8:38 AM 60.8 °F 57.2 °F 88% 29.85 in 5.0 mi SW 6.9 mph - N/A   Overcast
8:53 AM 61.0 °F 57.0 °F 87% 29.85 in 5.0 mi SSW 6.9 mph - N/A   Overcast
9:18 AM 60.8 °F 57.2 °F 88% 29.85 in 5.0 mi SSW 10.4 mph - N/A   Overcast
9:36 AM 60.8 °F 57.2 °F 88% 29.85 in 5.0 mi SSW 10.4 mph - 0.00 in   Overcast
9:53 AM 61.0 °F 57.9 °F 90% 29.86 in 4.0 mi SSW 10.4 mph - 0.00 in   Overcast
10:53 AM 62.1 °F 59.0 °F 90% 29.83 in 3.0 mi South 12.7 mph 20.7 mph 0.03 in Rain Light Rain
11:34 AM 62.6 °F 57.2 °F 82% 29.84 in 1.8 mi SSW 12.7 mph - 0.02 in Rain Heavy Rain
11:46 AM 60.8 °F 57.2 °F 88% 29.85 in 2.5 mi WSW 13.8 mph 24.2 mph 0.08 in Rain Light Rain
11:53 AM 60.1 °F 57.0 °F 90% 29.85 in 2.0 mi WSW 17.3 mph 27.6 mph 0.13 in Rain Heavy Rain
11:58 AM 60.8 °F 55.4 °F 82% 29.84 in 5.0 mi WSW 16.1 mph 26.5 mph 0.01 in Rain Light Rain
12:53 PM 62.1 °F 57.0 °F 84% 29.81 in 10.0 mi SSW 10.4 mph - 0.01 in   Overcast
1:23 PM 62.6 °F 57.2 °F 82% 29.80 in 10.0 mi SSW 10.4 mph - N/A   Overcast
1:43 PM 62.6 °F 57.2 °F 82% 29.79 in 10.0 mi SSW 12.7 mph - N/A   Overcast
1:53 PM 62.1 °F 57.0 °F 84% 29.79 in 10.0 mi SSW 13.8 mph 19.6 mph N/A   Overcast
2:32 PM 60.8 °F 57.2 °F 88% 29.77 in 10.0 mi South 12.7 mph - 0.00 in Rain Light Rain
2:53 PM 60.1 °F 57.0 °F 90% 29.75 in 7.0 mi South 11.5 mph - 0.00 in   Overcast
3:53 PM 60.1 °F 57.9 °F 93% 29.73 in 7.0 mi South 13.8 mph - 0.00 in   Overcast
4:35 PM 60.8 °F 57.2 °F 88% 29.72 in 7.0 mi South 15.0 mph 20.7 mph 0.00 in   Overcast
4:46 PM 62.6 °F 57.2 °F 82% 29.73 in 7.0 mi South 15.0 mph - 0.00 in   Overcast
4:53 PM 62.1 °F 57.9 °F 86% 29.73 in 7.0 mi South 15.0 mph - 0.00 in   Overcast
5:53 PM 62.1 °F 57.0 °F 84% 29.72 in 9.0 mi South 16.1 mph - N/A   Overcast
6:46 PM 60.8 °F 57.2 °F 88% 29.75 in 4.0 mi SSW 18.4 mph 25.3 mph 0.14 in Rain Rain
6:53 PM 61.0 °F 57.9 °F 90% 29.74 in 4.0 mi South 19.6 mph 28.8 mph 0.17 in Rain Heavy Rain
7:10 PM 59.0 °F 55.4 °F 88% 29.75 in 1.0 mi SW 21.9 mph 31.1 mph 0.13 in Rain Heavy Rain
7:24 PM 57.2 °F 53.6 °F 88% 29.74 in 1.8 mi SW 17.3 mph 28.8 mph 0.46 in Rain , Thunderstorm Heavy Thunderstorms and Rain
7:30 PM 57.2 °F 53.6 °F 88% 29.73 in 3.0 mi SW 12.7 mph 28.8 mph 0.53 in Rain , Thunderstorm Thunderstorms and Rain
7:45 PM 57.2 °F 55.4 °F 94% 29.72 in 5.0 mi SSW 9.2 mph - 0.56 in Rain Rain
7:53 PM 57.9 °F 55.9 °F 93% 29.74 in 3.0 mi SSW 9.2 mph - 0.60 in Rain Rain
8:53 PM 60.1 °F 55.0 °F 83% 29.66 in 8.0 mi SSW 16.1 mph 26.5 mph 0.17 in Rain Light Rain
9:11 PM 60.8 °F 57.2 °F 88% 29.66 in 6.0 mi South 12.7 mph 26.5 mph 0.01 in Rain Rain
9:53 PM 60.1 °F 57.0 °F 90% 29.65 in 5.0 mi SSW 10.4 mph - 0.14 in Rain Rain
10:36 PM 60.8 °F 57.2 °F 88% 29.64 in 10.0 mi SW 17.3 mph 23.0 mph 0.04 in   Overcast
10:53 PM 60.1 °F 57.0 °F 90% 29.65 in 10.0 mi SW 15.0 mph - 0.04 in Rain Light Rain
11:53 PM 55.9 °F 51.1 °F 84% 29.67 in 8.0 mi West 19.6 mph 27.6 mph 0.00 in   Overcast